Regional Weather Roundup
Issued by NWS

Home | Current Version | Previous Version | Graphics & Text | Print | Product List | Glossary On
Versions: 1 2 3 4 5 6 7 8 9 10 11 12 13 14 15 16 17 18 19 20 21 22 23 24 25 26 27 28 29 30 31 32 33 34 35 36 37 38 39 40 41 42 43 44 45 46 47 48 49 50
000
ASUS43 KLMK 240710
RWRKY
KENTUCKY REGIONAL WEATHER ROUNDUP
NATIONAL WEATHER SERVICE LOUISVILLE KY
300 AM EDT FRI OCT 24 2014

NOTE "FAIR" INDICATES FEW OR NO CLOUDS BELOW 12,000 FEET
WITH NO SIGNIFICANT WEATHER AND/OR OBSTRUCTIONS TO VISIBILITY.

KYZ001>023-026-027-061>063-070>075-240800-
WESTERN AND SOUTH CENTRAL KENTUCKY

CITY           SKY/WX    TMP DP  RH WIND       PRES   REMARKS
PADUCAH        CLEAR     42  40  92 SW3       30.12R
HENDERSON        N/A    N/A N/A N/A CALM      30.12S VSB 1/2
OWENSBORO      MOCLDY    46  44  93 CALM      30.12S
HOPKINSVILLE   CLOUDY    49  48  96 SW3       30.11S
BOWLING GREEN  MOCLDY    49  45  86 CALM      30.12S
GLASGOW        CLOUDY    44  44 100 CALM      30.11S
$$

KYZ024-025-028>034-038-045-046-053-240800-
NORTH CENTRAL KENTUCKY

CITY           SKY/WX    TMP DP  RH WIND       PRES   REMARKS
LOUISVILLE/SDF MOCLDY    47  44  90 SE8       30.12S
LOUISVILLE/LOU MOCLDY    44  42  93 CALM      30.12S
FORT KNOX      CLOUDY    42  41  95 CALM      30.10S
$$

KYZ035>037-039>044-047>052-055>060-089>105-240800-
NORTHEAST KENTUCKY

CITY           SKY/WX    TMP DP  RH WIND       PRES   REMARKS
LEXINGTON      MOCLDY    46  42  86 CALM      30.12S
COVINGTON      CLOUDY    43  39  86 CALM      30.11S
FRANKFORT      MOCLDY    42  39  89 CALM      30.11S
$$

KYZ054-064>069-076>088-106>120-240800-
SOUTHEAST KENTUCKY

CITY           SKY/WX    TMP DP  RH WIND       PRES   REMARKS
JACKSON        MOCLDY    43  39  86 CALM      30.12R
LONDON         CLOUDY    43  40  89 CALM      30.11F
SOMERSET       MOCLDY    43  43 100 CALM      30.13S
MIDDLESBORO    MOCLDY    41  40  99 CALM      30.13S
MONTICELLO     CLOUDY    42  42 100 CALM      30.13S FOG
$$




USA.gov is the U.S. government's official web portal to all federal, state and local government web resources and services.